| time (UTC) | temp F | wind direction | speed knots | gust knots | rain 1hr in | rain 24hr in | rain mn in | humidity % | barometer mb |
| 20260510220613 | 86 | 350 | 0.0 | 0.0 | 0.00 | 0.23 | 0.23 | 71 | 1013.7 |
| 20260510220108 | 86 | 282 | 2.6 | 6.1 | 0.00 | 0.23 | 0.23 | 71 | 1014.0 |
| 20260510215605 | 87 | 285 | 0.0 | 0.0 | 0.00 | 0.23 | 0.23 | 70 | 1014.0 |
| 20260510215104 | 87 | 303 | 3.5 | 6.1 | 0.00 | 0.23 | 0.23 | 68 | 1013.9 |
| 20260510214600 | 87 | 270 | 3.5 | 5.2 | 0.00 | 0.23 | 0.23 | 68 | 1013.9 |
| 20260510214056 | 87 | 295 | 0.0 | 1.7 | 0.00 | 0.23 | 0.23 | 69 | 1014.1 |
| 20260510213554 | 87 | 258 | 0.0 | 0.0 | 0.00 | 0.23 | 0.23 | 71 | 1014.3 |
| 20260510213049 | 87 | 235 | 2.6 | 4.3 | 0.00 | 0.23 | 0.23 | 69 | 1014.2 |
| 20260510212546 | 88 | 285 | 0.9 | 1.7 | 0.00 | 0.23 | 0.23 | 67 | 1014.3 |
| 20260510212044 | 88 | 340 | 3.5 | 6.1 | 0.00 | 0.23 | 0.23 | 66 | 1014.3 |
| 20260510211541 | 87 | 273 | 3.5 | 6.1 | 0.00 | 0.23 | 0.23 | 68 | 1014.1 |
| 20260510211040 | 87 | 254 | 1.7 | 2.6 | 0.00 | 0.23 | 0.23 | 68 | 1014.1 |
| 20260510210537 | 88 | 298 | 1.7 | 2.6 | 0.00 | 0.23 | 0.23 | 68 | 1014.0 |
| 20260510210032 | 89 | 249 | 2.6 | 6.1 | 0.00 | 0.23 | 0.23 | 67 | 1014.0 |
| 20260510205532 | 88 | 300 | 3.5 | 4.3 | 0.00 | 0.23 | 0.23 | 66 | 1014.4 |
| 20260510205028 | 88 | 291 | 2.6 | 4.3 | 0.00 | 0.23 | 0.23 | 68 | 1014.2 |
| 20260510204525 | 88 | 279 | 0.0 | 0.0 | 0.00 | 0.23 | 0.23 | 66 | 1014.1 |
| 20260510204021 | 89 | 326 | 3.5 | 6.1 | 0.00 | 0.23 | 0.23 | 64 | 1014.0 |
| 20260510203518 | 89 | 315 | 1.7 | 4.3 | 0.00 | 0.23 | 0.23 | 65 | 1014.2 |
| 20260510203015 | 89 | 304 | 4.3 | 6.1 | 0.00 | 0.23 | 0.23 | 65 | 1014.0 |
| 20260510202514 | 89 | 292 | 1.7 | 5.2 | 0.00 | 0.23 | 0.23 | 65 | 1014.0 |
| 20260510202010 | 89 | 261 | 4.3 | 6.1 | 0.00 | 0.23 | 0.23 | 63 | 1014.1 |
| 20260510201508 | 89 | 291 | 1.7 | 4.3 | 0.00 | 0.23 | 0.23 | 63 | 1014.0 |
| 20260510201004 | 89 | 4 | 0.0 | 0.0 | 0.00 | 0.23 | 0.23 | 63 | 1013.9 |
| 20260510200500 | 90 | 326 | 0.0 | 0.0 | 0.00 | 0.23 | 0.23 | 61 | 1014.1 |
| 20260510195957 | 91 | 277 | 2.6 | 4.3 | 0.00 | 0.23 | 0.23 | 60 | 1014.0 |
| 20260510195455 | 90 | 328 | 0.0 | 0.9 | 0.00 | 0.23 | 0.23 | 61 | 1014.1 |
| 20260510194950 | 90 | 268 | 2.6 | 5.2 | 0.00 | 0.23 | 0.23 | 62 | 1014.1 |
| 20260510194447 | 89 | 309 | 0.0 | 0.0 | 0.00 | 0.23 | 0.23 | 62 | 1014.1 |
| 20260510193943 | 90 | 271 | 0.0 | 0.9 | 0.00 | 0.23 | 0.23 | 61 | 1014.1 |
| 20260510193438 | 90 | 264 | 3.5 | 6.1 | 0.00 | 0.23 | 0.23 | 61 | 1014.0 |
| 20260510192933 | 91 | 264 | 1.7 | 5.2 | 0.00 | 0.23 | 0.23 | 62 | 1014.1 |
| 20260510192429 | 91 | 287 | 0.9 | 4.3 | 0.00 | 0.23 | 0.23 | 63 | 1014.0 |
| 20260510191925 | 90 | 294 | 4.3 | 6.1 | 0.00 | 0.23 | 0.23 | 65 | 1013.9 |
| 20260510191421 | 90 | 341 | 3.5 | 6.1 | 0.00 | 0.23 | 0.23 | 62 | 1014.1 |
| 20260510190919 | 91 | 281 | 2.6 | 7.0 | 0.00 | 0.23 | 0.23 | 65 | 1014.1 |
| 20260510190416 | 91 | 241 | 3.5 | 6.1 | 0.00 | 0.23 | 0.23 | 64 | 1014.0 |
| 20260510185912 | 90 | 251 | 0.9 | 1.7 | 0.00 | 0.23 | 0.23 | 64 | 1014.2 |
| 20260510185410 | 90 | 230 | 0.9 | 1.7 | 0.00 | 0.23 | 0.23 | 65 | 1014.0 |
| 20260510184907 | 91 | 272 | 5.2 | 7.8 | 0.00 | 0.23 | 0.23 | 64 | 1013.9 |
| 20260510184404 | 90 | 297 | 2.6 | 6.1 | 0.00 | 0.23 | 0.23 | 65 | 1014.1 |
| 20260510183903 | 92 | 247 | 0.9 | 2.6 | 0.00 | 0.23 | 0.23 | 63 | 1014.1 |
| 20260510183401 | 90 | 229 | 2.6 | 5.2 | 0.00 | 0.23 | 0.23 | 64 | 1014.3 |
| 20260510182855 | 90 | 282 | 4.3 | 5.2 | 0.00 | 0.23 | 0.23 | 65 | 1014.4 |
| 20260510182352 | 90 | 221 | 0.0 | 0.0 | 0.00 | 0.23 | 0.23 | 64 | 1014.2 |
| 20260510181848 | 91 | 231 | 0.0 | 0.0 | 0.00 | 0.23 | 0.23 | 64 | 1014.4 |
| 20260510181345 | 91 | 273 | 0.0 | 0.9 | 0.00 | 0.23 | 0.23 | 62 | 1014.6 |
| 20260510180841 | 92 | 217 | 0.0 | 0.0 | 0.00 | 0.23 | 0.23 | 63 | 1014.4 |
| 20260510180339 | 91 | 248 | 5.2 | 6.1 | 0.00 | 0.23 | 0.23 | 65 | 1014.6 |
| 20260510175836 | 89 | 262 | 0.0 | 0.0 | 0.00 | 0.23 | 0.23 | 66 | 1014.7 |
| 20260510175331 | 89 | 290 | 0.0 | 1.7 | 0.00 | 0.23 | 0.23 | 66 | 1014.7 |
| 20260510174828 | 89 | 241 | 0.9 | 1.7 | 0.00 | 0.23 | 0.23 | 66 | 1014.7 |
| 20260510174326 | 90 | 308 | 3.5 | 5.2 | 0.00 | 0.23 | 0.23 | 66 | 1014.7 |
| 20260510173821 | 91 | 241 | 2.6 | 5.2 | 0.00 | 0.23 | 0.23 | 65 | 1015.0 |
| 20260510173318 | 90 | 200 | 0.0 | 0.0 | 0.00 | 0.23 | 0.23 | 65 | 1014.9 |
| 20260510172814 | 90 | 283 | 0.9 | 1.7 | 0.00 | 0.23 | 0.23 | 64 | 1014.9 |
| 20260510172310 | 89 | 264 | 5.2 | 7.8 | 0.00 | 0.23 | 0.23 | 66 | 1015.0 |
| 20260510171807 | 91 | 274 | 4.3 | 6.1 | 0.00 | 0.23 | 0.23 | 63 | 1015.1 |
| 20260510171304 | 90 | 222 | 0.0 | 0.0 | 0.00 | 0.23 | 0.23 | 64 | 1015.1 |
| 20260510170801 | 90 | 220 | 0.0 | 0.0 | 0.00 | 0.23 | 0.23 | 67 | 1015.1 |
| 20260510170257 | 89 | 207 | 0.0 | 0.0 | 0.00 | 0.23 | 0.23 | 67 | 1015.0 |
| 20260510165752 | 90 | 261 | 0.0 | 1.7 | 0.00 | 0.23 | 0.23 | 68 | 1015.5 |
| 20260510165249 | 89 | 261 | 0.0 | 0.0 | 0.00 | 0.23 | 0.23 | 67 | 1015.4 |
| 20260510164746 | 90 | 226 | 0.0 | 0.9 | 0.00 | 0.23 | 0.23 | 65 | 1015.6 |
| 20260510164244 | 89 | 245 | 0.0 | 1.7 | 0.00 | 0.23 | 0.23 | 67 | 1015.6 |
| 20260510163744 | 89 | 178 | 0.0 | 0.0 | 0.00 | 0.23 | 0.23 | 66 | 1015.4 |
| 20260510163240 | 87 | 244 | 0.0 | 0.0 | 0.00 | 0.23 | 0.23 | 70 | 1015.3 |
| 20260510162740 | 88 | 298 | 0.0 | 0.0 | 0.00 | 0.23 | 0.23 | 69 | 1015.4 |
| 20260510162237 | 88 | 252 | 0.0 | 0.0 | 0.00 | 0.23 | 0.23 | 68 | 1015.8 |
| 20260510161733 | 89 | 314 | 0.0 | 0.0 | 0.00 | 0.23 | 0.23 | 68 | 1015.6 |
| 20260510161229 | 89 | 209 | 0.0 | 0.0 | 0.00 | 0.23 | 0.23 | 69 | 1015.7 |
| 20260510160726 | 90 | 212 | 0.0 | 0.0 | 0.00 | 0.23 | 0.23 | 66 | 1015.6 |
| 20260510160226 | 89 | 237 | 0.9 | 2.6 | 0.00 | 0.23 | 0.23 | 65 | 1015.7 |
| 20260510155723 | 87 | 195 | 0.0 | 0.0 | 0.00 | 0.23 | 0.23 | 70 | 1015.7 |
| 20260510155218 | 87 | 290 | 0.9 | 1.7 | 0.00 | 0.23 | 0.23 | 70 | 1015.6 |
| 20260510154714 | 88 | 241 | 0.0 | 0.0 | 0.00 | 0.23 | 0.23 | 69 | 1015.8 |
| 20260510154211 | 86 | 252 | 0.0 | 0.0 | 0.00 | 0.23 | 0.23 | 71 | 1015.8 |
| 20260510153705 | 87 | 241 | 0.0 | 0.0 | 0.00 | 0.23 | 0.23 | 71 | 1015.4 |
| 20260510153202 | 86 | 263 | 2.6 | 6.1 | 0.00 | 0.23 | 0.23 | 72 | 1015.4 |
| 20260510152659 | 87 | 178 | 0.0 | 0.0 | 0.00 | 0.23 | 0.23 | 73 | 1015.5 |
| 20260510152155 | 87 | 242 | 0.0 | 0.0 | 0.00 | 0.23 | 0.23 | 73 | 1015.6 |
| 20260510151651 | 86 | 239 | 0.0 | 0.0 | 0.00 | 0.23 | 0.23 | 75 | 1015.7 |
| 20260510151150 | 86 | 271 | 0.0 | 0.0 | 0.00 | 0.23 | 0.23 | 74 | 1015.7 |
| 20260510150646 | 86 | 267 | 0.0 | 0.0 | 0.00 | 0.23 | 0.23 | 74 | 1015.7 |
| 20260510150141 | 86 | 172 | 0.0 | 0.0 | 0.00 | 0.23 | 0.23 | 71 | 1015.6 |
| 20260510145638 | 85 | 272 | 0.9 | 1.7 | 0.00 | 0.23 | 0.23 | 73 | 1015.7 |
| 20260510145134 | 85 | 213 | 0.0 | 0.0 | 0.00 | 0.23 | 0.23 | 75 | 1015.6 |
| 20260510144630 | 85 | 252 | 0.0 | 0.0 | 0.00 | 0.23 | 0.23 | 74 | 1015.7 |
| 20260510144126 | 85 | 229 | 0.0 | 0.0 | 0.00 | 0.23 | 0.23 | 75 | 1015.7 |
| 20260510143622 | 86 | 264 | 0.0 | 0.0 | 0.00 | 0.23 | 0.23 | 74 | 1015.6 |
| 20260510143119 | 86 | 195 | 0.0 | 0.0 | 0.00 | 0.23 | 0.23 | 75 | 1015.7 |
| 20260510142615 | 84 | 65 | 0.0 | 0.0 | 0.00 | 0.23 | 0.23 | 78 | 1015.5 |
| 20260510142112 | 85 | 227 | 0.0 | 0.0 | 0.00 | 0.23 | 0.23 | 77 | 1015.7 |
| 20260510141609 | 84 | 157 | 0.0 | 0.0 | 0.00 | 0.23 | 0.23 | 80 | 1015.5 |
| 20260510141107 | 84 | 185 | 0.0 | 0.0 | 0.00 | 0.23 | 0.23 | 80 | 1015.6 |
| 20260510140603 | 83 | 226 | 0.0 | 0.0 | 0.00 | 0.23 | 0.23 | 82 | 1015.6 |
| 20260510135558 | 79 | 169 | 0.0 | 0.0 | 0.00 | 0.23 | 0.23 | 90 | 1015.4 |
| 20260510135055 | 78 | 149 | 0.0 | 0.0 | 0.00 | 0.23 | 0.23 | 93 | 1015.4 |
| 20260510134552 | 78 | 161 | 0.0 | 0.0 | 0.00 | 0.23 | 0.23 | 95 | 1015.3 |
| 20260510134049 | 77 | 210 | 0.0 | 0.0 | 0.00 | 0.23 | 0.23 | 95 | 1015.4 |
| 20260510133544 | 76 | 215 | 0.0 | 0.0 | 0.00 | 0.23 | 0.23 | 97 | 1015.5 |
| 20260510133040 | 76 | 206 | 0.0 | 0.0 | 0.00 | 0.23 | 0.23 | 97 | 1015.6 |
| 20260510132537 | 76 | 154 | 0.0 | 0.0 | 0.00 | 0.23 | 0.23 | 98 | 1015.2 |
| 20260510132034 | 75 | 160 | 0.0 | 0.0 | 0.00 | 0.23 | 0.23 | 98 | 1015.4 |
| 20260510131532 | 75 | 139 | 0.0 | 0.0 | 0.00 | 0.23 | 0.23 | 98 | 1015.0 |
| 20260510131029 | 75 | 163 | 0.0 | 0.0 | 0.00 | 0.23 | 0.23 | 98 | 1015.2 |
| 20260510130525 | 75 | 167 | 0.0 | 0.0 | 0.00 | 0.23 | 0.23 | 98 | 1015.1 |
| 20260510130023 | 75 | 167 | 0.0 | 0.0 | 0.00 | 0.23 | 0.23 | 99 | 1015.2 |
| 20260510125519 | 75 | 161 | 0.0 | 0.0 | 0.00 | 0.23 | 0.23 | 99 | 1015.3 |
| 20260510125016 | 75 | 161 | 0.0 | 0.0 | 0.00 | 0.23 | 0.23 | 99 | 1015.4 |
| 20260510124512 | 75 | 166 | 0.0 | 0.0 | 0.00 | 0.23 | 0.23 | 99 | 1015.3 |
| 20260510124009 | 75 | 167 | 0.0 | 0.0 | 0.00 | 0.23 | 0.23 | 99 | 1015.3 |
| 20260510123504 | 74 | 153 | 0.0 | 0.0 | 0.00 | 0.23 | 0.23 | 99 | 1015.0 |
| 20260510123000 | 74 | 165 | 0.0 | 0.0 | 0.00 | 0.23 | 0.23 | 99 | 1015.1 |
| 20260510122456 | 74 | 161 | 0.0 | 0.0 | 0.00 | 0.23 | 0.23 | 99 | 1015.0 |
| 20260510121952 | 74 | 167 | 0.0 | 0.0 | 0.00 | 0.23 | 0.23 | 99 | 1014.9 |
| 20260510121450 | 74 | 166 | 0.0 | 0.0 | 0.00 | 0.23 | 0.23 | 99 | 1015.1 |
| 20260510120947 | 74 | 177 | 0.0 | 0.0 | 0.00 | 0.23 | 0.23 | 99 | 1014.8 |
| 20260510120445 | 74 | 171 | 0.0 | 0.0 | 0.00 | 0.23 | 0.23 | 99 | 1014.6 |
| 20260510115940 | 73 | 158 | 0.0 | 0.0 | 0.00 | 0.23 | 0.23 | 99 | 1014.9 |
| 20260510115437 | 73 | 155 | 0.0 | 0.0 | 0.00 | 0.23 | 0.23 | 99 | 1014.6 |
| 20260510114933 | 73 | 154 | 0.0 | 0.0 | 0.00 | 0.23 | 0.23 | 99 | 1014.5 |
| 20260510114430 | 73 | 153 | 0.0 | 0.0 | 0.00 | 0.23 | 0.23 | 99 | 1014.3 |
| 20260510113925 | 72 | 153 | 0.0 | 0.0 | 0.00 | 0.23 | 0.23 | 99 | 1014.5 |
| 20260510113421 | 72 | 153 | 0.0 | 0.0 | 0.00 | 0.23 | 0.23 | 99 | 1014.3 |
| 20260510112919 | 72 | 149 | 0.0 | 0.0 | 0.00 | 0.23 | 0.23 | 99 | 1014.1 |
| 20260510112417 | 72 | 156 | 0.0 | 0.0 | 0.00 | 0.23 | 0.23 | 99 | 1014.2 |
| 20260510111912 | 72 | 159 | 0.0 | 0.0 | 0.00 | 0.23 | 0.23 | 99 | 1014.1 |
| 20260510111408 | 71 | 162 | 0.0 | 0.0 | 0.00 | 0.23 | 0.23 | 99 | 1014.1 |
| 20260510110904 | 71 | 165 | 0.0 | 0.0 | 0.00 | 0.23 | 0.23 | 99 | 1014.0 |
| 20260510110401 | 71 | 162 | 0.0 | 0.0 | 0.00 | 0.23 | 0.23 | 99 | 1014.0 |
| 20260510105857 | 71 | 169 | 0.0 | 0.0 | 0.00 | 0.23 | 0.23 | 99 | 1014.0 |
| 20260510105356 | 71 | 169 | 0.0 | 0.0 | 0.00 | 0.23 | 0.23 | 99 | 1013.9 |
| 20260510104853 | 71 | 162 | 0.0 | 0.0 | 0.00 | 0.23 | 0.23 | 99 | 1013.8 |
| 20260510104350 | 71 | 170 | 0.0 | 0.0 | 0.00 | 0.23 | 0.23 | 99 | 1013.5 |
| 20260510103846 | 71 | 169 | 0.0 | 0.0 | 0.00 | 0.23 | 0.23 | 99 | 1013.1 |
| 20260510103343 | 71 | 176 | 0.0 | 0.0 | 0.00 | 0.23 | 0.23 | 99 | 1013.1 |
| 20260510102839 | 71 | 169 | 0.0 | 0.0 | 0.00 | 0.23 | 0.23 | 99 | 1013.2 |
| 20260510102335 | 71 | 160 | 0.0 | 0.0 | 0.00 | 0.23 | 0.23 | 99 | 1013.1 |
| 20260510101832 | 71 | 162 | 0.0 | 0.0 | 0.00 | 0.23 | 0.23 | 99 | 1013.1 |
| 20260510101330 | 71 | 161 | 0.0 | 0.0 | 0.00 | 0.23 | 0.23 | 99 | 1013.1 |
| 20260510100825 | 71 | 162 | 0.0 | 0.0 | 0.00 | 0.23 | 0.23 | 99 | 1012.9 |
| 20260510100324 | 71 | 169 | 0.0 | 0.0 | 0.00 | 0.23 | 0.23 | 99 | 1013.0 |
| 20260510095820 | 71 | 176 | 0.0 | 0.0 | 0.00 | 0.23 | 0.23 | 99 | 1013.0 |
| 20260510095314 | 72 | 176 | 0.0 | 0.0 | 0.00 | 0.23 | 0.23 | 99 | 1012.9 |
| 20260510094809 | 71 | 176 | 0.0 | 0.0 | 0.00 | 0.23 | 0.23 | 99 | 1012.6 |
| 20260510094304 | 72 | 176 | 0.0 | 0.0 | 0.00 | 0.23 | 0.23 | 99 | 1012.9 |
| 20260510093800 | 72 | 176 | 0.0 | 0.0 | 0.00 | 0.23 | 0.23 | 99 | 1012.8 |
| 20260510093257 | 72 | 172 | 0.0 | 0.0 | 0.00 | 0.23 | 0.23 | 99 | 1012.5 |
| 20260510092753 | 72 | 161 | 0.0 | 0.0 | 0.00 | 0.23 | 0.23 | 99 | 1012.5 |
| 20260510092249 | 72 | 176 | 0.0 | 0.0 | 0.00 | 0.23 | 0.23 | 99 | 1012.7 |
| 20260510091745 | 72 | 176 | 0.0 | 0.0 | 0.00 | 0.23 | 0.23 | 99 | 1012.7 |
| 20260510091242 | 72 | 176 | 0.0 | 0.0 | 0.00 | 0.23 | 0.23 | 99 | 1012.4 |
| 20260510090739 | 72 | 176 | 0.0 | 0.0 | 0.00 | 0.23 | 0.23 | 99 | 1012.3 |
| 20260510090236 | 72 | 162 | 0.0 | 0.0 | 0.00 | 0.23 | 0.23 | 99 | 1012.1 |
| 20260510085731 | 72 | 161 | 0.0 | 0.0 | 0.00 | 0.23 | 0.23 | 99 | 1012.3 |
| 20260510085226 | 72 | 161 | 0.0 | 0.0 | 0.00 | 0.23 | 0.23 | 99 | 1012.1 |
| 20260510084722 | 72 | 161 | 0.0 | 0.0 | 0.00 | 0.23 | 0.23 | 98 | 1012.1 |
| 20260510084219 | 72 | 176 | 0.0 | 0.0 | 0.00 | 0.23 | 0.23 | 98 | 1012.0 |
| 20260510083716 | 72 | 172 | 0.0 | 0.0 | 0.00 | 0.23 | 0.23 | 98 | 1012.3 |
| 20260510083213 | 73 | 172 | 0.0 | 0.0 | 0.00 | 0.23 | 0.23 | 98 | 1012.1 |
| 20260510082708 | 73 | 172 | 0.0 | 0.0 | 0.00 | 0.23 | 0.23 | 98 | 1012.0 |
| 20260510082205 | 73 | 170 | 0.0 | 0.0 | 0.00 | 0.23 | 0.23 | 98 | 1012.0 |
| 20260510081659 | 73 | 169 | 0.0 | 0.0 | 0.00 | 0.23 | 0.23 | 97 | 1012.1 |
| 20260510081155 | 73 | 172 | 0.0 | 0.0 | 0.00 | 0.23 | 0.23 | 97 | 1012.3 |
| 20260510080655 | 73 | 169 | 0.0 | 0.0 | 0.00 | 0.23 | 0.23 | 97 | 1012.3 |
| 20260510080152 | 73 | 172 | 0.0 | 0.0 | 0.00 | 0.23 | 0.23 | 97 | 1012.3 |
| 20260510075649 | 73 | 169 | 0.0 | 0.0 | 0.00 | 0.23 | 0.23 | 97 | 1012.3 |
| 20260510075146 | 73 | 171 | 0.0 | 0.0 | 0.00 | 0.23 | 0.23 | 97 | 1012.5 |
| 20260510074643 | 73 | 169 | 0.0 | 0.0 | 0.00 | 0.23 | 0.23 | 97 | 1012.3 |
| 20260510074139 | 73 | 161 | 0.0 | 0.0 | 0.00 | 0.23 | 0.23 | 96 | 1012.3 |
| 20260510073636 | 73 | 161 | 0.0 | 0.0 | 0.00 | 0.23 | 0.23 | 96 | 1012.4 |
| 20260510073132 | 74 | 169 | 0.0 | 0.0 | 0.00 | 0.23 | 0.23 | 96 | 1012.4 |
| 20260510072628 | 73 | 169 | 0.0 | 0.0 | 0.00 | 0.23 | 0.23 | 96 | 1012.4 |
| 20260510072125 | 73 | 161 | 0.0 | 0.0 | 0.00 | 0.23 | 0.23 | 96 | 1012.5 |
| 20260510071620 | 73 | 165 | 0.0 | 0.0 | 0.00 | 0.23 | 0.23 | 96 | 1012.5 |
| 20260510071118 | 73 | 162 | 0.0 | 0.0 | 0.00 | 0.23 | 0.23 | 96 | 1012.7 |
| 20260510070615 | 74 | 137 | 0.0 | 0.0 | 0.00 | 0.23 | 0.23 | 96 | 1012.8 |
| 20260510070113 | 74 | 149 | 0.0 | 0.0 | 0.00 | 0.23 | 0.23 | 96 | 1012.7 |
| 20260510065608 | 74 | 169 | 0.0 | 0.0 | 0.00 | 0.23 | 0.23 | 96 | 1012.7 |
| 20260510065104 | 74 | 169 | 0.0 | 0.0 | 0.00 | 0.23 | 0.23 | 95 | 1012.7 |
| 20260510064601 | 74 | 162 | 0.0 | 0.0 | 0.00 | 0.23 | 0.23 | 95 | 1012.7 |
| 20260510064058 | 74 | 163 | 0.0 | 0.0 | 0.00 | 0.23 | 0.23 | 95 | 1012.8 |
| 20260510063555 | 74 | 163 | 0.0 | 0.0 | 0.00 | 0.23 | 0.23 | 94 | 1012.9 |
| 20260510063052 | 74 | 148 | 0.0 | 0.0 | 0.00 | 0.23 | 0.23 | 94 | 1012.9 |
| 20260510062548 | 74 | 156 | 0.0 | 0.0 | 0.07 | 0.23 | 0.23 | 94 | 1013.1 |
| 20260510062043 | 75 | 151 | 0.0 | 0.0 | 0.19 | 0.23 | 0.23 | 94 | 1013.0 |
| 20260510061540 | 75 | 149 | 0.0 | 0.0 | 0.66 | 0.22 | 0.22 | 93 | 1013.1 |
| 20260510061036 | 75 | 158 | 0.0 | 0.0 | 0.85 | 0.21 | 0.21 | 93 | 1013.3 |
| 20260510060533 | 75 | 164 | 0.0 | 0.0 | 0.35 | 0.11 | 0.11 | 93 | 1013.4 |
| 20260510060029 | 75 | 151 | 0.0 | 0.0 | 0.12 | 0.06 | 0.06 | 92 | 1013.6 |
| 20260510055525 | 76 | 165 | 0.0 | 0.0 | 0.12 | 0.05 | 0.05 | 92 | 1013.5 |
| 20260510055024 | 76 | 148 | 0.0 | 0.0 | 0.24 | 0.04 | 0.04 | 91 | 1013.5 |
| 20260510054519 | 77 | 163 | 0.0 | 0.0 | 0.19 | 0.03 | 0.03 | 90 | 1013.6 |
| 20260510054014 | 77 | 156 | 0.0 | 0.0 | 0.00 | 0.00 | 0.00 | 89 | 1013.5 |
| 20260510053509 | 77 | 151 | 0.0 | 0.0 | 0.00 | 0.00 | 0.00 | 88 | 1013.8 |
| 20260510053007 | 77 | 144 | 0.0 | 0.0 | 0.00 | 0.00 | 0.00 | 88 | 1013.5 |
| 20260510052503 | 77 | 155 | 0.0 | 0.0 | 0.00 | 0.00 | 0.00 | 88 | 1013.7 |
| 20260510051959 | 77 | 151 | 0.0 | 0.0 | 0.00 | 0.00 | 0.00 | 88 | 1013.7 |
| 20260510051454 | 77 | 146 | 0.0 | 0.0 | 0.00 | 0.00 | 0.00 | 88 | 1013.8 |
| 20260510050951 | 77 | 163 | 0.0 | 0.0 | 0.00 | 0.00 | 0.00 | 88 | 1014.0 |
| 20260510050448 | 77 | 159 | 0.0 | 0.0 | 0.00 | 0.00 | 0.00 | 88 | 1013.8 |
| 20260510045945 | 77 | 166 | 0.0 | 0.0 | 0.00 | 0.00 | 0.00 | 88 | 1013.9 |
| 20260510045443 | 77 | 155 | 0.0 | 0.0 | 0.00 | 0.00 | 0.00 | 88 | 1013.9 |
| 20260510044939 | 77 | 128 | 0.0 | 0.0 | 0.00 | 0.00 | 0.00 | 89 | 1013.9 |
| 20260510044436 | 77 | 157 | 0.0 | 0.0 | 0.00 | 0.00 | 0.00 | 89 | 1014.1 |
| 20260510043933 | 77 | 151 | 0.0 | 0.0 | 0.00 | 0.00 | 0.00 | 89 | 1013.9 |
| 20260510043428 | 77 | 151 | 0.0 | 0.0 | 0.00 | 0.00 | 0.00 | 89 | 1014.0 |
| 20260510042927 | 77 | 147 | 0.0 | 0.0 | 0.00 | 0.00 | 0.00 | 89 | 1014.0 |
| 20260510042423 | 76 | 151 | 0.0 | 0.0 | 0.00 | 0.00 | 0.00 | 89 | 1013.7 |
| 20260510041918 | 76 | 154 | 0.0 | 0.0 | 0.00 | 0.00 | 0.00 | 89 | 1014.1 |
| 20260510041416 | 76 | 153 | 0.0 | 0.0 | 0.00 | 0.00 | 0.00 | 89 | 1014.0 |
| 20260510040914 | 76 | 153 | 0.0 | 0.0 | 0.00 | 0.00 | 0.00 | 89 | 1013.9 |
| 20260510040410 | 76 | 149 | 0.0 | 0.0 | 0.00 | 0.00 | 0.00 | 89 | 1013.9 |
| 20260510035905 | 76 | 140 | 0.0 | 0.0 | 0.00 | 0.00 | 0.00 | 89 | 1013.9 |
| 20260510035402 | 76 | 138 | 0.0 | 0.0 | 0.00 | 0.00 | 0.00 | 89 | 1013.7 |
| 20260510034857 | 76 | 158 | 0.0 | 0.0 | 0.00 | 0.00 | 0.00 | 89 | 1014.0 |
| 20260510034356 | 77 | 158 | 0.0 | 0.0 | 0.00 | 0.00 | 0.00 | 88 | 1013.7 |
| 20260510033851 | 77 | 153 | 0.0 | 0.0 | 0.00 | 0.00 | 0.00 | 88 | 1013.8 |
| 20260510033348 | 77 | 146 | 0.0 | 0.0 | 0.00 | 0.00 | 0.00 | 87 | 1013.7 |
| 20260510032844 | 77 | 154 | 0.0 | 0.0 | 0.00 | 0.00 | 0.00 | 87 | 1013.6 |
| 20260510032341 | 77 | 150 | 0.0 | 0.0 | 0.00 | 0.00 | 0.00 | 86 | 1013.7 |
| 20260510031837 | 78 | 157 | 0.0 | 0.0 | 0.00 | 0.00 | 0.00 | 86 | 1013.7 |
| 20260510031333 | 78 | 159 | 0.0 | 0.0 | 0.00 | 0.00 | 0.00 | 86 | 1013.6 |
| 20260510030832 | 78 | 154 | 0.0 | 0.0 | 0.00 | 0.00 | 0.00 | 85 | 1013.9 |
| 20260510030329 | 78 | 141 | 0.0 | 0.0 | 0.00 | 0.00 | 0.00 | 85 | 1013.7 |
| 20260510025826 | 78 | 145 | 0.0 | 0.0 | 0.00 | 0.00 | 0.00 | 85 | 1013.8 |
| 20260510025324 | 78 | 147 | 0.0 | 0.0 | 0.00 | 0.00 | 0.00 | 84 | 1013.7 |
| 20260510024820 | 78 | 142 | 0.0 | 0.0 | 0.00 | 0.00 | 0.00 | 84 | 1013.6 |
| 20260510024318 | 78 | 156 | 0.0 | 0.0 | 0.00 | 0.00 | 0.00 | 84 | 1013.7 |
| 20260510023814 | 78 | 149 | 0.0 | 0.0 | 0.00 | 0.00 | 0.00 | 84 | 1013.6 |
| 20260510023310 | 78 | 136 | 0.0 | 0.0 | 0.00 | 0.00 | 0.00 | 83 | 1013.7 |
| 20260510022807 | 78 | 163 | 0.0 | 0.0 | 0.00 | 0.00 | 0.00 | 84 | 1013.6 |
| 20260510022307 | 78 | 158 | 0.0 | 0.0 | 0.00 | 0.00 | 0.00 | 83 | 1013.7 |
| 20260510021806 | 78 | 150 | 0.0 | 0.0 | 0.00 | 0.00 | 0.00 | 83 | 1013.5 |
| 20260510021304 | 78 | 152 | 0.0 | 0.0 | 0.00 | 0.00 | 0.00 | 83 | 1013.7 |
| 20260510020759 | 78 | 151 | 0.0 | 0.0 | 0.00 | 0.00 | 0.00 | 83 | 1013.6 |
| 20260510020254 | 78 | 147 | 0.0 | 0.0 | 0.00 | 0.00 | 0.00 | 82 | 1013.5 |
| 20260510015750 | 78 | 148 | 0.0 | 0.0 | 0.00 | 0.00 | 0.00 | 81 | 1013.4 |
| 20260510015247 | 78 | 152 | 0.0 | 0.0 | 0.00 | 0.00 | 0.00 | 80 | 1013.4 |
| 20260510014741 | 79 | 151 | 0.0 | 0.0 | 0.00 | 0.00 | 0.00 | 80 | 1013.3 |
| 20260510014239 | 80 | 155 | 0.0 | 0.0 | 0.00 | 0.00 | 0.00 | 80 | 1012.9 |
| 20260510013735 | 80 | 225 | 0.0 | 0.0 | 0.00 | 0.00 | 0.00 | 80 | 1013.1 |
| 20260510013230 | 80 | 163 | 0.0 | 0.0 | 0.00 | 0.00 | 0.00 | 80 | 1013.1 |
| 20260510012725 | 80 | 162 | 0.0 | 0.0 | 0.00 | 0.00 | 0.00 | 79 | 1012.7 |
| 20260510012221 | 80 | 225 | 0.0 | 0.0 | 0.00 | 0.00 | 0.00 | 79 | 1012.7 |
| 20260510011720 | 80 | 280 | 0.0 | 0.0 | 0.00 | 0.00 | 0.00 | 78 | 1012.7 |
| 20260510011216 | 80 | 297 | 0.0 | 0.0 | 0.00 | 0.00 | 0.00 | 78 | 1012.5 |
| 20260510010713 | 80 | 183 | 0.0 | 0.0 | 0.00 | 0.00 | 0.00 | 78 | 1012.5 |
| 20260510010210 | 81 | 256 | 0.0 | 0.0 | 0.00 | 0.00 | 0.00 | 77 | 1012.5 |
| 20260510005707 | 81 | 234 | 0.0 | 0.0 | 0.00 | 0.00 | 0.00 | 77 | 1012.4 |
| 20260510005203 | 81 | 218 | 0.0 | 0.0 | 0.00 | 0.00 | 0.00 | 76 | 1012.5 |
| 20260510004702 | 81 | 292 | 0.0 | 0.0 | 0.00 | 0.00 | 0.00 | 75 | 1012.3 |
| 20260510004159 | 81 | 258 | 0.0 | 0.0 | 0.00 | 0.00 | 0.00 | 74 | 1012.0 |
| 20260510003656 | 81 | 255 | 0.0 | 0.0 | 0.00 | 0.00 | 0.00 | 73 | 1012.5 |
| 20260510003152 | 82 | 293 | 0.0 | 0.0 | 0.00 | 0.00 | 0.00 | 72 | 1012.3 |
| 20260510002651 | 82 | 215 | 0.0 | 0.0 | 0.00 | 0.00 | 0.00 | 71 | 1012.3 |
| 20260510002149 | 82 | 322 | 0.0 | 0.0 | 0.00 | 0.00 | 0.00 | 70 | 1011.9 |
| 20260510001646 | 82 | 339 | 0.0 | 0.0 | 0.00 | 0.00 | 0.00 | 69 | 1012.1 |
| 20260510001145 | 82 | 312 | 0.9 | 2.6 | 0.00 | 0.00 | 0.00 | 69 | 1012.1 |
| 20260510000644 | 82 | 260 | 1.7 | 1.7 | 0.00 | 0.00 | 0.00 | 68 | 1011.7 |
| 20260510000143 | 83 | 302 | 4.3 | 4.3 | 0.00 | 0.00 | 0.00 | 67 | 1011.7 |
| 20260509235638 | 83 | 315 | 0.0 | 0.0 | 0.00 | 0.00 | 0.00 | 68 | 1011.7 |
| 20260509235135 | 83 | 244 | 0.0 | 0.0 | 0.00 | 0.00 | 0.00 | 66 | 1011.5 |
| 20260509234631 | 83 | 269 | 0.0 | 0.9 | 0.00 | 0.00 | 0.00 | 65 | 1011.7 |
| 20260509234129 | 84 | 186 | 0.0 | 0.0 | 0.00 | 0.00 | 0.00 | 64 | 1011.6 |
| 20260509233627 | 84 | 143 | 0.0 | 0.0 | 0.00 | 0.00 | 0.00 | 62 | 1011.3 |
| 20260509233124 | 85 | 324 | 3.5 | 4.3 | 0.00 | 0.00 | 0.00 | 61 | 1011.3 |
| 20260509232620 | 85 | 263 | 0.0 | 0.0 | 0.00 | 0.00 | 0.00 | 60 | 1011.4 |
| 20260509232117 | 85 | 282 | 1.7 | 4.3 | 0.00 | 0.00 | 0.00 | 59 | 1011.3 |
| 20260509231614 | 86 | 19 | 1.7 | 2.6 | 0.00 | 0.00 | 0.00 | 58 | 1011.4 |
| 20260509231111 | 86 | 241 | 0.0 | 1.7 | 0.00 | 0.00 | 0.00 | 57 | 1011.3 |
| 20260509230608 | 86 | 264 | 0.0 | 0.0 | 0.00 | 0.00 | 0.00 | 57 | 1011.2 |
| 20260509230105 | 87 | 272 | 3.5 | 5.2 | 0.00 | 0.00 | 0.00 | 56 | 1011.0 |
| 20260509225601 | 87 | 275 | 0.0 | 0.0 | 0.00 | 0.00 | 0.00 | 59 | 1011.0 |
| 20260509225056 | 87 | 208 | 0.0 | 0.0 | 0.00 | 0.00 | 0.00 | 57 | 1010.9 |
| 20260509224552 | 87 | 248 | 0.0 | 0.0 | 0.00 | 0.00 | 0.00 | 57 | 1010.9 |
| 20260509224049 | 87 | 261 | 2.6 | 4.3 | 0.00 | 0.00 | 0.00 | 56 | 1010.9 |
| 20260509223546 | 87 | 191 | 0.0 | 0.0 | 0.00 | 0.00 | 0.00 | 55 | 1010.9 |
| 20260509223044 | 88 | 243 | 0.0 | 0.0 | 0.00 | 0.00 | 0.00 | 54 | 1010.8 |
| 20260509222539 | 88 | 235 | 0.0 | 0.0 | 0.00 | 0.00 | 0.00 | 53 | 1010.7 |
| 20260509222036 | 89 | 244 | 0.0 | 0.0 | 0.00 | 0.00 | 0.00 | 53 | 1010.9 |
| 20260509221531 | 88 | 303 | 0.0 | 0.0 | 0.00 | 0.00 | 0.00 | 55 | 1010.9 |
| 20260509221027 | 88 | 243 | 0.0 | 0.9 | 0.00 | 0.00 | 0.00 | 54 | 1010.7 |